Regional Weather Roundup
Issued by NWS

Home | Current Version | Previous Version | Text Only | Print | Product List | Glossary Off
Versions: 1 2 3 4 5 6 7 8 9 10 11 12 13 14 15 16 17 18 19 20 21 22 23 24 25 26 27 28 29 30 31 32 33 34 35 36 37 38 39 40 41 42 43 44 45 46 47 48 49 50

000
ASUS43 KBIS 300902
RWRND

NORTH DAKOTA REGIONAL WEATHER ROUNDUP
NATIONAL WEATHER SERVICE BISMARCK ND
400 AM CDT SAT MAY 30 2015

NOTE: "FAIR" INDICATES FEW OR NO CLOUDS BELOW 12,000 FEET WITH NO
SIGNIFICANT WEATHER AND/OR OBSTRUCTIONS TO VISIBILITY.


NDZ001>003-009>011-017-301000-
NORTHWEST NORTH DAKOTA

CITY           SKY/WX    TMP DP  RH WIND       PRES   REMARKS
WILLISTON      PTCLDY    43  34  70 E5        30.30S
MINOT          CLEAR     34  29  82 E6        30.37R
MINOT AFB      CLEAR     34  34  99 E7        30.36S
$$

NDZ018>021-031>035-040>046-301000-
SOUTHWEST NORTH DAKOTA

CITY           SKY/WX    TMP DP  RH WIND       PRES   REMARKS
BISMARCK       CLEAR     35  32  88 E5        30.35R
DICKINSON      CLEAR     34  30  85 S7        30.29R
GARRISON         N/A     39  32  76 E12       30.35R
HETTINGER ARPT CLEAR     30  28  92 CALM      30.31R
$$

NDZ004>008-012>016-024-026-027-054-301000-
NORTHEAST NORTH DAKOTA

CITY           SKY/WX    TMP DP  RH WIND       PRES   REMARKS
GRAND FORKS    CLEAR     34  25  69 N12       30.35S
GRND FRKS AFB  CLEAR     32  24  72 N10       30.36R
DEVILS LAKE    CLEAR     34  21  60 NE10      30.37R
$$

NDZ022-023-025-028>030-036>039-047>053-301000-
SOUTHEAST NORTH DAKOTA

CITY           SKY/WX    TMP DP  RH WIND       PRES   REMARKS
FARGO          CLEAR     37  29  72 N14       30.32R
JAMESTOWN      CLEAR     36  28  73 NE9       30.35R
$$



USA.gov is the U.S. government's official web portal to all federal, state and local government web resources and services.